LPE0021 SKBO-SKAR

Flight info

Callsign LPE0021
Flight time 0h 26m
Altitude 18000
Route ISNOX2S ISNOX ISNOX1J
Aircraft A20N/M-SDE2E3FGHIRWXY/LB1

Departure

Time 2026-05-05 03:55
Airport El Dorado International Airport (SKBO)

Arrival

Time 2026-05-05 04:22
Airport El Eden Airport (SKAR)
Time Latitude Longitude Altitude Speed Heading
2026-05-05 03:16 4.70150 -74.14411 8371 ft 0 kts 127°
2026-05-05 03:40 4.70153 -74.14414 8371 ft 2 kts 128°
2026-05-05 03:40 4.70165 -74.14421 8371 ft 2 kts 169°
2026-05-05 03:40 4.70180 -74.14422 8371 ft 2 kts 190°
2026-05-05 03:40 4.70195 -74.14417 8371 ft 2 kts 212°
2026-05-05 03:41 4.70206 -74.14407 8371 ft 2 kts 233°
2026-05-05 03:41 4.70213 -74.14394 8371 ft 2 kts 255°
2026-05-05 03:41 4.70215 -74.14378 8371 ft 2 kts 276°
2026-05-05 03:41 4.70211 -74.14364 8371 ft 2 kts 298°
2026-05-05 03:42 4.70207 -74.14358 8371 ft 1 kts 310°
2026-05-05 03:42 4.70204 -74.14354 8371 ft 0 kts 307°
2026-05-05 03:46 4.70206 -74.14356 8371 ft 2 kts 307°
2026-05-05 03:46 4.70248 -74.14407 8371 ft 10 kts 320°
2026-05-05 03:46 4.70313 -74.14387 8371 ft 11 kts 37°
2026-05-05 03:47 4.70376 -74.14339 8370 ft 11 kts 38°
2026-05-05 03:47 4.70441 -74.14349 8370 ft 11 kts 310°
2026-05-05 03:47 4.70446 -74.14356 8370 ft 1 kts 308°
2026-05-05 03:47 4.70470 -74.14387 8370 ft 8 kts 305°
2026-05-05 03:48 4.70507 -74.14439 8370 ft 9 kts 307°
2026-05-05 03:48 4.70548 -74.14492 8370 ft 10 kts 308°
2026-05-05 03:48 4.70592 -74.14549 8370 ft 10 kts 307°
2026-05-05 03:48 4.70637 -74.14610 8369 ft 11 kts 307°
2026-05-05 03:49 4.70685 -74.14674 8369 ft 11 kts 307°
2026-05-05 03:49 4.70734 -74.14739 8369 ft 11 kts 307°
2026-05-05 03:49 4.70786 -74.14806 8369 ft 12 kts 308°
2026-05-05 03:49 4.70839 -74.14877 8368 ft 12 kts 307°
2026-05-05 03:50 4.70894 -74.14951 8368 ft 13 kts 307°
2026-05-05 03:50 4.70951 -74.15026 8367 ft 13 kts 307°
2026-05-05 03:50 4.71011 -74.15105 8366 ft 14 kts 307°
2026-05-05 03:50 4.71075 -74.15189 8365 ft 15 kts 307°
2026-05-05 03:51 4.71141 -74.15276 8363 ft 16 kts 310°
2026-05-05 03:51 4.71233 -74.15288 8362 ft 0 kts 35°
2026-05-05 03:52 4.71235 -74.15286 8362 ft 0 kts 35°
2026-05-05 03:52 4.71253 -74.15271 8362 ft 4 kts 45°
2026-05-05 03:53 4.71279 -74.15244 8362 ft 5 kts 47°
2026-05-05 03:53 4.71307 -74.15215 8362 ft 6 kts 44°
2026-05-05 03:53 4.71325 -74.15182 8362 ft 5 kts 117°
2026-05-05 03:53 4.71304 -74.15160 8362 ft 0 kts 130°
2026-05-05 03:54 4.71303 -74.15159 8362 ft 6 kts 130°
2026-05-05 03:54 4.71100 -74.14893 8367 ft 87 kts 127°
2026-05-05 03:55 4.70593 -74.14220 8370 ft 153 kts 127°
2026-05-05 03:55 4.69848 -74.13250 8579 ft 189 kts 128°
2026-05-05 03:55 4.69042 -74.12161 9099 ft 201 kts 127°
2026-05-05 03:55 4.68157 -74.11015 9503 ft 214 kts 139°
2026-05-05 03:56 4.66796 -74.10381 9871 ft 226 kts 179°
2026-05-05 03:56 4.65275 -74.10795 10333 ft 238 kts 217°
2026-05-05 03:56 4.64264 -74.12147 10715 ft 254 kts 255°
2026-05-05 03:56 4.64078 -74.13931 11271 ft 261 kts 267°
2026-05-05 03:57 4.63829 -74.15726 11866 ft 265 kts 254°
2026-05-05 03:57 4.63212 -74.17480 12452 ft 270 kts 246°
2026-05-05 03:57 4.62394 -74.19211 13029 ft 275 kts 242°
2026-05-05 03:57 4.61620 -74.20956 13560 ft 282 kts 251°
2026-05-05 03:58 4.61108 -74.22887 13976 ft 293 kts 258°
2026-05-05 03:58 4.60708 -74.24943 14262 ft 310 kts 259°
2026-05-05 03:58 4.60174 -74.27106 14517 ft 326 kts 251°
2026-05-05 03:58 4.59316 -74.29250 14766 ft 342 kts 243°
2026-05-05 03:59 4.58225 -74.31439 15008 ft 357 kts 242°
2026-05-05 03:59 4.57044 -74.33718 15225 ft 373 kts 242°
2026-05-05 03:59 4.55832 -74.36051 15416 ft 387 kts 242°
2026-05-05 03:59 4.54568 -74.38495 15609 ft 401 kts 242°
2026-05-05 04:00 4.53271 -74.41017 15772 ft 414 kts 242°
2026-05-05 04:00 4.51933 -74.43624 15945 ft 427 kts 242°
2026-05-05 04:00 4.50562 -74.46301 16202 ft 436 kts 242°
2026-05-05 04:00 4.49229 -74.49038 16551 ft 441 kts 248°
2026-05-05 04:01 4.48596 -74.52058 16965 ft 445 kts 267°
2026-05-05 04:01 4.48578 -74.55168 17449 ft 446 kts 272°
2026-05-05 04:01 4.48674 -74.58285 17888 ft 449 kts 272°
2026-05-05 04:01 4.48747 -74.61398 18133 ft 451 kts 271°
2026-05-05 04:02 4.48778 -74.64576 18155 ft 451 kts 270°
2026-05-05 04:02 4.48773 -74.67693 18123 ft 451 kts 270°
2026-05-05 04:02 4.48744 -74.70853 18139 ft 451 kts 270°
2026-05-05 04:02 4.48703 -74.74002 18141 ft 451 kts 269°
2026-05-05 04:03 4.48654 -74.77136 18104 ft 450 kts 269°
2026-05-05 04:03 4.48603 -74.80281 18145 ft 451 kts 269°
2026-05-05 04:03 4.48550 -74.83420 18095 ft 450 kts 269°
2026-05-05 04:03 4.48495 -74.86558 18113 ft 451 kts 269°
2026-05-05 04:04 4.48440 -74.89685 18105 ft 451 kts 269°
2026-05-05 04:04 4.48385 -74.92834 18088 ft 451 kts 269°
2026-05-05 04:04 4.48330 -74.95976 18057 ft 450 kts 269°
2026-05-05 04:04 4.48274 -74.99124 18070 ft 451 kts 269°
2026-05-05 04:05 4.48218 -75.02279 18074 ft 451 kts 269°
2026-05-05 04:05 4.48162 -75.05427 18087 ft 451 kts 269°
2026-05-05 04:05 4.48105 -75.08572 18094 ft 451 kts 269°
2026-05-05 04:05 4.48049 -75.11710 18111 ft 451 kts 269°
2026-05-05 04:06 4.47994 -75.14840 18136 ft 450 kts 269°
2026-05-05 04:06 4.47938 -75.17972 18161 ft 450 kts 269°
2026-05-05 04:06 4.47882 -75.21088 18189 ft 451 kts 269°
2026-05-05 04:06 4.47826 -75.24204 18214 ft 450 kts 269°
2026-05-05 04:07 4.47769 -75.27369 18248 ft 451 kts 269°
2026-05-05 04:07 4.47712 -75.30499 18278 ft 449 kts 269°
2026-05-05 04:07 4.47656 -75.33571 18105 ft 443 kts 269°
2026-05-05 04:07 4.47600 -75.36661 17742 ft 434 kts 269°
2026-05-05 04:08 4.47546 -75.39642 17346 ft 426 kts 269°
2026-05-05 04:08 4.47493 -75.42554 17001 ft 418 kts 269°
2026-05-05 04:08 4.47441 -75.45419 16646 ft 410 kts 269°
2026-05-05 04:08 4.47389 -75.48267 16306 ft 402 kts 269°
2026-05-05 04:09 4.47338 -75.51053 15942 ft 394 kts 269°
2026-05-05 04:09 4.47285 -75.53732 15563 ft 387 kts 268°
2026-05-05 04:09 4.47044 -75.56406 15214 ft 379 kts 261°
2026-05-05 04:09 4.46548 -75.58923 15160 ft 362 kts 257°
2026-05-05 04:10 4.45994 -75.61337 15140 ft 346 kts 256°
2026-05-05 04:10 4.45458 -75.63614 15113 ft 331 kts 256°
2026-05-05 04:10 4.44932 -75.65863 15103 ft 330 kts 257°
2026-05-05 04:10 4.44412 -75.68102 15102 ft 330 kts 257°
2026-05-05 04:11 4.43892 -75.70352 15084 ft 330 kts 257°
2026-05-05 04:11 4.43373 -75.72608 15065 ft 329 kts 257°
2026-05-05 04:11 4.42858 -75.74838 15035 ft 330 kts 257°
2026-05-05 04:11 4.42337 -75.77093 14794 ft 332 kts 257°
2026-05-05 04:12 4.41822 -75.79326 14398 ft 331 kts 257°
2026-05-05 04:12 4.41304 -75.81569 14009 ft 329 kts 257°
2026-05-05 04:12 4.40796 -75.83771 13654 ft 326 kts 257°
2026-05-05 04:12 4.40509 -75.86021 13238 ft 324 kts 276°
2026-05-05 04:13 4.41212 -75.88139 12849 ft 319 kts 303°
2026-05-05 04:13 4.42474 -75.89937 12495 ft 316 kts 307°
2026-05-05 04:13 4.43782 -75.91711 12117 ft 313 kts 312°
2026-05-05 04:13 4.45503 -75.92996 11704 ft 307 kts 341°
2026-05-05 04:14 4.47597 -75.93271 11352 ft 301 kts
2026-05-05 04:14 4.49542 -75.92600 10990 ft 296 kts 33°
2026-05-05 04:14 4.51214 -75.91433 10650 ft 294 kts 36°
2026-05-05 04:14 4.52904 -75.90232 10260 ft 293 kts 36°
2026-05-05 04:15 4.54565 -75.89075 9924 ft 291 kts 35°
2026-05-05 04:15 4.56246 -75.87917 9604 ft 290 kts 35°
2026-05-05 04:15 4.57912 -75.86773 9274 ft 287 kts 35°
2026-05-05 04:15 4.59519 -75.85667 9234 ft 273 kts 35°
2026-05-05 04:16 4.61052 -75.84612 9192 ft 259 kts 35°
2026-05-05 04:16 4.62513 -75.83607 9145 ft 246 kts 36°
2026-05-05 04:16 4.63881 -75.82604 9071 ft 244 kts 46°
2026-05-05 04:16 4.64686 -75.81167 8820 ft 238 kts 83°
2026-05-05 04:17 4.64505 -75.79517 8474 ft 238 kts 107°
2026-05-05 04:17 4.63972 -75.77940 8103 ft 241 kts 108°
2026-05-05 04:17 4.63457 -75.76357 7723 ft 243 kts 106°
2026-05-05 04:17 4.62876 -75.74756 7310 ft 246 kts 122°
2026-05-05 04:18 4.61644 -75.73565 6842 ft 252 kts 152°
2026-05-05 04:18 4.59983 -75.73176 6506 ft 239 kts 184°
2026-05-05 04:18 4.58420 -75.73515 6305 ft 222 kts 198°
2026-05-05 04:18 4.57024 -75.73961 6270 ft 197 kts 193°
2026-05-05 04:19 4.55735 -75.74246 6042 ft 185 kts 190°
2026-05-05 04:19 4.54472 -75.74470 5667 ft 184 kts 187°
2026-05-05 04:19 4.53212 -75.74710 5271 ft 184 kts 193°
2026-05-05 04:19 4.51993 -75.75017 5031 ft 172 kts 192°
2026-05-05 04:20 4.50850 -75.75285 4924 ft 163 kts 192°
2026-05-05 04:20 4.49793 -75.75526 4797 ft 160 kts 195°
2026-05-05 04:20 4.48743 -75.75813 4627 ft 152 kts 192°
2026-05-05 04:20 4.47704 -75.76036 4303 ft 155 kts 194°
2026-05-05 04:21 4.46616 -75.76286 4151 ft 156 kts 196°
2026-05-05 04:21 4.45605 -75.76533 4002 ft 124 kts 192°
2026-05-05 04:21 4.45008 -75.76670 3999 ft 72 kts 196°
2026-05-05 04:21 4.44530 -75.76787 3987 ft 67 kts 193°
2026-05-05 04:22 4.44209 -75.76863 3976 ft 3 kts 193°
2026-05-05 04:22 4.44172 -75.76862 3975 ft 6 kts 167°
2026-05-05 04:22 4.44174 -75.76870 3975 ft 5 kts 356°
2026-05-05 04:22 4.44205 -75.76866 3975 ft 3 kts 13°
2026-05-05 04:23 4.44222 -75.76862 3976 ft 1 kts 14°
2026-05-05 04:23 4.44238 -75.76858 3977 ft 3 kts 14°
2026-05-05 04:23 4.44262 -75.76852 3977 ft 9 kts 14°
2026-05-05 04:23 4.44402 -75.76817 3982 ft 20 kts 14°
2026-05-05 04:24 4.44530 -75.76787 3987 ft 17 kts 12°
2026-05-05 04:24 4.44636 -75.76762 3990 ft 14 kts 14°
2026-05-05 04:24 4.44724 -75.76742 3993 ft 11 kts 13°
2026-05-05 04:25 4.44868 -75.76707 3997 ft 9 kts 14°
2026-05-05 04:25 4.44928 -75.76691 3998 ft 9 kts 14°
2026-05-05 04:25 4.45059 -75.76661 4000 ft 26 kts 12°
2026-05-05 04:25 4.45191 -75.76650 4001 ft 8 kts 320°
2026-05-05 04:26 4.45210 -75.76665 4001 ft 0 kts 309°
2026-05-05 04:26 4.45211 -75.76666 4001 ft 0 kts 309°
2026-05-05 04:26 4.45235 -75.76697 4001 ft 9 kts 308°
2026-05-05 04:27 4.45256 -75.76751 4001 ft 0 kts 285°
2026-05-05 04:27 4.45256 -75.76753 4001 ft 0 kts 285°
2026-05-05 04:27 4.45257 -75.76756 4001 ft 0 kts 284°